Weather History for North Bend, OR

Change the Weather History Date:

Friday, September 2, 2011

  Actual Average Record
Temperature  
Mean Temperature 57 °F 59 °F  
Max Temperature 64 °F 66 °F 80 °F (1973)
Min Temperature 50 °F 52 °F 40 °F (1913)
Degree Days  
Heating Degree Days 8 6  
Month to date heating degree days 18 12  
Since 1 July heating degree days 368 391  
Cooling Degree Days 0 0  
Month to date cooling degree days 0 0  
Year to date cooling degree days 1 1  
Growing Degree Days 7 (Base 50)    
Moisture  
Dew Point 47 °F    
Average Humidity 69    
Maximum Humidity 83    
Minimum Humidity 52    
Precipitation  
Precipitation 0.00 in 0.03 in 1.77 in (1999)
Month to date precipitation 0.00 0.06  
Year to date precipitation 27.98 37.30  
Sea Level Pressure  
Sea Level Pressure 30.17 in    
Wind  
Wind Speed 14 mph (North)    
Max Wind Speed 30 mph    
Max Gust Speed 39 mph    
Visibility 9 miles    
Events      
T = Trace of Precipitation, MM = Missing Value Source: NWS Daily Summary

Daily Weather History Graph

Daily Weather History Graph

Search for Another Location

Airport:

Trip Planner

Search our weather history database for the weather conditions in past years. The results will help you decide how hot, cold, wet, or windy it might be!

Date:

Astronomy

Sep. 02, 2011 Rise Set
Actual Time 6:41 AM PDT 7:50 PM PDT
Civil Twilight 6:12 AM PDT 8:19 PM PDT
Nautical Twilight 5:37 AM PDT 8:55 PM PDT
Astronomical Twilight 5:00 AM PDT 9:31 PM PDT
Moon 12:34 PM PDT (9/2) 10:16 PM PDT (9/2)
Length of Visible Light 14h 07m
Length of Day
13h 08m
Waxing Crescent, 29% of the Moon is Illuminated
Sep 2
Waxing Crescent
Sep 4
First Quarter
Sep 12
Full
Sep 20
Last Quarter
Sep 27
New

Hourly Weather History & Observations

Time (PDT) Temp. Dew Point Humidity Pressure Visibility Wind Dir Wind Speed Gust Speed Precip Events Conditions
12:15 AM 53.6 °F 46.4 °F 77% 30.17 in 6.0 mi North 6.9 mph - N/A   Clear
12:35 AM 53.6 °F 46.4 °F 77% 30.17 in 7.0 mi North 9.2 mph - N/A   Clear
12:55 AM 53.6 °F 46.4 °F 77% 30.17 in 7.0 mi North 5.8 mph - N/A   Clear
1:15 AM 53.6 °F 46.4 °F 77% 30.17 in 8.0 mi North 4.6 mph - N/A   Clear
1:35 AM 51.8 °F 46.4 °F 82% 30.16 in 8.0 mi North 3.5 mph - N/A   Clear
1:55 AM 51.8 °F 46.4 °F 82% 30.16 in 7.0 mi NNW 5.8 mph - N/A   Clear
2:15 AM 51.8 °F 46.4 °F 82% 30.17 in 5.0 mi North 6.9 mph - N/A   Clear
2:35 AM 51.8 °F 44.6 °F 76% 30.17 in 5.0 mi North 5.8 mph - N/A   Clear
2:55 AM 51.8 °F 46.4 °F 82% 30.17 in 6.0 mi North 8.1 mph - N/A   Clear
3:15 AM 51.8 °F 44.6 °F 76% 30.17 in 6.0 mi North 5.8 mph - N/A   Clear
3:35 AM 51.8 °F 44.6 °F 76% 30.17 in 7.0 mi North 5.8 mph - N/A   Clear
3:55 AM 51.8 °F 44.6 °F 76% 30.16 in 6.0 mi North 4.6 mph - N/A   Clear
4:15 AM 51.8 °F 44.6 °F 76% 30.17 in 7.0 mi North 5.8 mph - N/A   Clear
4:35 AM 51.8 °F 44.6 °F 76% 30.17 in 10.0 mi North 4.6 mph - N/A   Clear
4:55 AM 51.8 °F 44.6 °F 76% 30.17 in 10.0 mi Calm Calm - N/A   Clear
5:15 AM 51.8 °F 44.6 °F 76% 30.17 in 10.0 mi Calm Calm - N/A   Clear
5:35 AM 51.8 °F 44.6 °F 76% 30.17 in 10.0 mi North 6.9 mph - N/A   Clear
5:55 AM 51.8 °F 44.6 °F 76% 30.17 in 10.0 mi North 5.8 mph - N/A   Clear
6:15 AM 51.8 °F 44.6 °F 76% 30.17 in 10.0 mi North 4.6 mph - N/A   Clear
6:35 AM 50.0 °F 44.6 °F 82% 30.17 in 10.0 mi North 3.5 mph - N/A   Clear
6:55 AM 51.8 °F 44.6 °F 76% 30.18 in 10.0 mi North 4.6 mph - N/A   Clear
7:15 AM 51.8 °F 46.4 °F 82% 30.18 in 10.0 mi NNE 4.6 mph - N/A   Clear
7:35 AM 51.8 °F 46.4 °F 82% 30.18 in 10.0 mi Calm Calm - N/A   Clear
7:55 AM 51.8 °F 46.4 °F 82% 30.18 in 9.0 mi Calm Calm - N/A   Clear
8:15 AM 53.6 °F 48.2 °F 82% 30.19 in 10.0 mi Calm Calm - N/A   Clear
8:35 AM 57.2 °F 50.0 °F 77% 30.19 in 10.0 mi NE 3.5 mph - N/A   Clear
8:55 AM 59.0 °F 50.0 °F 72% 30.19 in 10.0 mi NE 4.6 mph - N/A   Clear
9:15 AM 60.8 °F 51.8 °F 72% 30.19 in 10.0 mi North 6.9 mph - N/A   Clear
9:35 AM 62.6 °F 51.8 °F 68% 30.18 in 10.0 mi North 11.5 mph - N/A   Clear
9:55 AM 62.6 °F 50.0 °F 63% 30.18 in 10.0 mi North 13.8 mph - N/A   Clear
10:15 AM 64.4 °F 50.0 °F 59% 30.18 in 10.0 mi North 15.0 mph - N/A   Clear
10:35 AM 64.4 °F 50.0 °F 59% 30.18 in 10.0 mi North 17.3 mph 21.9 mph N/A   Clear
10:55 AM 62.6 °F 48.2 °F 59% 30.18 in 10.0 mi North 20.7 mph 26.5 mph N/A   Clear
11:15 AM 64.4 °F 48.2 °F 56% 30.18 in 10.0 mi North 19.6 mph - N/A   Clear
11:35 AM 64.4 °F 50.0 °F 59% 30.18 in 10.0 mi North 24.2 mph 28.8 mph N/A   Clear
11:55 AM 64.4 °F 50.0 °F 59% 30.17 in 10.0 mi North 23.0 mph - N/A   Clear
12:15 PM 64.4 °F 48.2 °F 56% 30.17 in 10.0 mi North 28.8 mph 34.5 mph N/A   Clear
12:35 PM 62.6 °F 48.2 °F 59% 30.17 in 10.0 mi North 25.3 mph 34.5 mph N/A   Clear
12:55 PM 62.6 °F 48.2 °F 59% 30.16 in 10.0 mi North 29.9 mph 34.5 mph N/A   Clear
1:15 PM 62.6 °F 48.2 °F 59% 30.16 in 10.0 mi North 29.9 mph 35.7 mph N/A   Clear
1:35 PM 62.6 °F 48.2 °F 59% 30.16 in 10.0 mi North 27.6 mph 34.5 mph N/A   Clear
1:55 PM 64.4 °F 48.2 °F 56% 30.15 in 10.0 mi North 28.8 mph 35.7 mph N/A   Clear
2:15 PM 64.4 °F 48.2 °F 56% 30.15 in 10.0 mi North 27.6 mph 34.5 mph N/A   Clear
2:35 PM 64.4 °F 48.2 °F 56% 30.15 in 10.0 mi North 25.3 mph 35.7 mph N/A   Clear
2:55 PM 64.4 °F 46.4 °F 52% 30.15 in 10.0 mi North 28.8 mph 39.1 mph N/A   Clear
3:15 PM 64.4 °F 46.4 °F 52% 30.14 in 10.0 mi North 25.3 mph 35.7 mph N/A   Clear
3:35 PM 62.6 °F 46.4 °F 55% 30.14 in 10.0 mi North 24.2 mph 33.4 mph N/A   Clear
3:55 PM 62.6 °F 46.4 °F 55% 30.14 in 10.0 mi North 25.3 mph 35.7 mph N/A   Clear
4:15 PM 62.6 °F 46.4 °F 55% 30.13 in 10.0 mi North 28.8 mph 34.5 mph N/A   Clear
4:35 PM 62.6 °F 46.4 °F 55% 30.13 in 10.0 mi North 23.0 mph 34.5 mph N/A   Clear
4:55 PM 62.6 °F 46.4 °F 55% 30.13 in 10.0 mi North 27.6 mph 33.4 mph N/A   Clear
5:15 PM 60.8 °F 48.2 °F 63% 30.12 in 10.0 mi North 25.3 mph 33.4 mph N/A   Clear
5:35 PM 60.8 °F 48.2 °F 63% 30.12 in 10.0 mi North 25.3 mph 31.1 mph N/A   Clear
5:55 PM 60.8 °F 48.2 °F 63% 30.12 in 10.0 mi North 19.6 mph 33.4 mph N/A   Clear
6:15 PM 60.8 °F 48.2 °F 63% 30.11 in 10.0 mi North 23.0 mph 27.6 mph N/A   Clear
6:35 PM 60.8 °F 48.2 °F 63% 30.11 in 10.0 mi North 20.7 mph - N/A   Clear
6:55 PM 59.0 °F 46.4 °F 63% 30.10 in 10.0 mi North 20.7 mph 26.5 mph N/A   Clear
7:15 PM 57.2 °F 46.4 °F 67% 30.10 in 10.0 mi North 19.6 mph - N/A   Clear
7:35 PM 55.4 °F 46.4 °F 72% 30.09 in 10.0 mi North 21.9 mph 26.5 mph N/A   Clear
8:15 PM 55.4 °F 46.4 °F 72% 30.09 in 10.0 mi North 20.7 mph - N/A   Clear
8:35 PM 55.4 °F 46.4 °F 72% 30.09 in 10.0 mi North 20.7 mph 25.3 mph N/A   Clear
9:15 PM 53.6 °F 46.4 °F 77% 30.10 in 10.0 mi North 11.5 mph - N/A   Clear
9:55 PM 53.6 °F 46.4 °F 77% 30.10 in 7.0 mi North 8.1 mph - N/A   Clear
10:15 PM 53.6 °F 46.4 °F 77% 30.10 in 7.0 mi North 10.4 mph - N/A   Clear
10:35 PM 53.6 °F 46.4 °F 77% 30.10 in 6.0 mi North 8.1 mph - N/A   Clear
10:55 PM 53.6 °F 46.4 °F 77% 30.09 in 5.0 mi NNW 6.9 mph - N/A   Clear
11:15 PM 51.8 °F 46.4 °F 82% 30.09 in 5.0 mi NNW 8.1 mph - N/A   Clear
11:55 PM 51.8 °F 46.4 °F 82% 30.09 in 4.0 mi North 4.6 mph - N/A   Clear